GFSNGP_850_spd_105.txt.gz
Wind_Speed
17 19 18 13 11 14 5 5 4 5 6 8 12 13 16 18 21 23 28 31 32 34 37 37 34 31 27 24 21 15 11 12 11 14 10 8 8 7 9 10 8 7 8 9
18 15 2 14 19 17 11 12 10 12 8 8 13 16 23 23 23 25 27 29 32 35 37 39 36 34 30 27 23 18 15 14 10 14 14 12 9 8 8 9 8 9 10 12
5 14 11 10 10 14 11 16 9 5 6 7 12 16 21 22 22 21 22 26 32 35 36 36 33 33 32 29 23 22 21 21 15 9 12 13 11 11 12 10 12 12 12 15
4 8 4 6 6 12 17 13 12 11 9 10 13 17 20 21 20 22 25 28 30 30 32 34 34 35 32 30 28 27 25 24 21 14 5 6 9 12 14 14 13 14 16 17
2 7 7 2 7 6 5 6 11 8 5 3 8 4 13 20 19 21 23 24 27 29 30 32 35 36 37 36 36 34 32 29 25 22 18 11 4 4 7 8 12 13 13 14
2 4 3 3 13 12 5 3 10 11 9 10 8 4 3 16 17 19 21 23 26 30 33 36 37 37 38 39 39 39 36 32 27 24 20 19 17 10 9 6 7 6 8 6
4 4 5 10 17 4 3 1 8 9 12 18 5 6 5 11 16 18 21 23 24 28 31 33 35 37 40 40 40 34 32 31 31 29 27 23 18 16 14 13 13 11 10 9
3 3 4 21 3 3 6 9 8 8 11 16 15 13 12 14 16 18 21 22 24 27 28 28 30 32 35 39 35 33 32 33 32 30 28 26 24 21 17 15 13 19 20 20
5 3 5 8 12 11 11 13 11 12 11 12 12 12 11 13 15 18 20 22 24 26 27 28 30 29 31 29 29 30 32 33 32 30 29 27 27 27 26 25 22 24 24 28
1 4 9 10 11 12 11 14 13 12 12 11 13 11 11 12 14 16 19 22 22 24 26 27 26 27 27 27 26 26 29 30 29 29 27 27 27 26 27 27 24 24 23 25
5 5 9 9 9 10 13 13 13 11 10 10 10 11 11 12 14 15 16 18 20 22 24 24 24 25 26 26 24 25 26 26 26 26 26 26 26 25 24 23 21 22 20 20
2 11 8 6 9 9 12 11 11 13 12 9 8 10 10 13 14 15 15 15 17 19 20 22 23 24 24 24 24 24 25 25 23 22 21 21 20 18 17 15 14 15 15 15
6 9 9 15 12 12 13 11 10 10 9 9 8 7 11 11 13 13 14 15 17 18 18 18 19 21 22 23 23 22 21 20 20 19 18 17 15 14 13 12 10 9 10 11
21 24 16 16 9 13 13 11 10 10 10 11 11 9 10 12 12 12 14 15 14 14 15 17 18 19 20 20 20 19 19 18 19 19 18 16 15 13 11 10 10 10 10 11
5 2 11 16 17 14 12 12 12 11 11 12 11 10 11 12 12 13 12 12 13 12 13 13 15 16 17 18 19 20 19 18 17 17 17 17 15 14 12 11 11 11 10 9
13 18 21 18 16 14 13 12 13 12 10 11 11 8 9 9 10 10 11 11 10 13 15 14 14 15 15 16 16 16 17 16 16 15 15 15 15 14 13 12 12 12 11 12
23 17 17 17 16 14 12 11 11 11 11 9 7 7 7 7 7 8 9 11 11 11 12 13 13 13 13 15 16 16 16 15 14 12 13 14 13 13 13 13 13 13 13 13
9 13 12 14 17 14 13 11 11 10 9 7 6 5 4 3 4 6 9 11 12 11 11 12 13 13 13 14 14 15 15 14 13 13 12 12 11 11 12 12 13 13 14 14
15 14 12 12 11 11 12 13 11 9 7 5 4 3 3 3 6 8 9 9 9 10 11 12 13 13 13 13 13 14 14 13 12 11 11 11 11 10 11 11 11 12 12 13
18 14 12 12 12 12 13 12 9 7 5 3 2 2 4 6 7 8 9 9 11 13 12 12 13 13 12 12 13 13 14 13 11 11 11 11 11 10 11 11 12 13 13 13
15 13 13 14 16 14 11 9 7 5 4 2 3 5 6 8 8 9 8 10 13 16 16 16 14 15 14 12 12 13 13 12 11 11 11 11 11 12 13 12 13 13 14 13
14 15 15 16 14 12 10 8 6 4 2 2 4 4 5 6 7 8 9 11 13 14 12 14 13 13 13 13 13 13 13 12 12 12 12 12 12 12 10 10 11 11 11 10
14 15 16 14 11 10 8 6 4 3 2 1 1 4 5 6 7 9 10 11 13 13 13 13 10 11 12 14 14 13 13 13 13 13 12 12 12 10 11 13 13 10 9 10
17 17 16 15 13 9 6 4 4 3 1 2 4 6 8 9 10 11 11 11 12 12 12 11 11 12 14 14 14 14 14 14 14 14 13 14 11 11 12 13 13 12 11 11
19 18 16 13 10 9 7 5 4 2 5 7 8 9 11 14 15 12 14 13 13 13 14 14 16 16 17 17 17 17 15 15 15 14 14 13 13 13 14 14 13 13 13 12
21 17 13 9 8 7 6 5 3 6 8 10 12 12 14 15 16 16 15 16 16 16 17 18 21 20 20 18 20 18 17 17 17 17 17 17 17 16 15 15 15 14 14 15
18 16 14 13 10 6 6 4 5 8 10 11 11 14 15 16 16 15 14 15 16 18 20 21 21 21 21 23 23 23 21 20 20 21 20 22 21 20 21 19 17 15 15 16

GFSNGP_850_spd_108.txt.gz
Wind_Speed
15 17 13 5 6 14 5 4 3 6 6 8 8 11 16 18 21 25 28 32 36 38 43 41 39 36 32 31 29 25 19 15 14 12 16 15 14 12 10 6 6 9 9 13
13 12 4 4 10 8 11 9 10 12 7 6 9 11 17 22 24 24 25 28 35 39 41 41 38 36 34 33 31 27 26 22 18 12 16 16 13 16 11 9 9 8 9 10
2 18 8 5 6 9 9 15 5 4 5 5 8 14 19 21 22 23 26 28 33 34 35 37 37 37 36 35 31 30 29 27 24 17 17 16 17 15 13 12 12 13 12 13
4 6 3 3 5 11 15 11 10 9 7 7 10 14 20 21 20 23 25 29 31 31 34 37 38 39 38 37 37 36 35 30 28 23 20 19 13 11 11 7 7 6 4 5
3 3 4 6 4 3 5 6 8 4 3 3 7 3 13 20 19 19 22 23 25 29 32 35 39 40 39 40 39 40 41 38 34 29 27 24 23 21 15 7 6 5 2 1
3 3 3 2 8 6 7 2 6 6 5 7 8 3 3 15 17 19 21 24 25 26 29 35 38 38 41 42 41 42 40 37 36 35 32 30 26 24 22 19 18 13 13 14
3 4 4 6 13 7 2 3 5 8 9 9 5 6 4 9 14 17 20 23 23 27 31 32 32 36 39 40 42 38 36 36 37 36 35 34 31 27 24 23 21 21 20 22
3 3 3 15 2 1 7 9 11 12 14 19 15 10 9 12 15 18 21 22 25 28 30 30 31 33 35 37 34 34 34 35 36 35 34 33 33 33 32 30 29 29 28 27
4 3 4 8 12 10 7 14 12 15 12 11 12 11 10 12 15 18 21 22 23 26 27 29 31 31 34 32 30 31 32 33 33 32 31 31 31 32 32 32 31 30 31 32
2 3 7 7 10 11 10 16 15 14 12 11 12 10 11 12 14 16 18 20 22 24 27 28 29 29 30 29 29 29 30 30 29 30 29 29 30 30 30 31 29 29 28 28
4 7 9 7 10 12 13 13 13 12 11 10 10 12 11 12 12 14 16 17 20 23 25 26 26 27 27 28 27 28 28 27 27 27 27 27 27 27 27 27 24 24 25 23
3 10 6 8 12 12 14 13 11 10 11 9 8 10 9 12 12 13 14 15 17 19 20 22 23 24 26 27 27 26 26 27 26 25 23 22 21 19 19 18 17 17 18 18
7 12 10 19 15 12 14 12 10 9 8 8 8 7 7 9 10 11 12 14 16 18 19 20 21 23 25 26 26 25 25 25 25 25 24 23 20 19 17 16 15 14 15 14
16 20 14 16 10 11 11 11 9 9 9 8 8 8 7 8 9 9 11 13 13 14 15 17 18 19 21 21 22 22 22 23 23 23 23 22 22 21 19 18 18 18 17 16
9 2 12 14 17 14 11 10 11 11 10 10 11 10 8 8 9 10 11 11 12 12 13 15 16 19 20 21 21 22 23 23 23 22 22 21 20 19 18 18 17 16 14 13
3 12 16 19 17 14 13 11 11 11 10 10 9 8 6 6 9 10 10 10 10 14 17 17 17 19 19 19 20 20 21 20 20 20 20 20 20 19 19 19 18 18 17 17
20 16 17 17 17 15 12 11 10 11 11 10 7 6 5 7 8 8 9 12 14 15 16 16 16 17 18 19 20 20 21 20 19 18 18 18 18 19 19 19 19 19 19 18
5 11 12 14 16 15 13 13 12 11 9 7 6 4 4 5 6 8 9 12 13 12 13 15 17 17 17 18 19 19 20 19 19 18 17 17 16 16 16 17 17 17 17 17
7 11 10 10 10 12 14 14 13 11 9 7 5 5 5 4 6 9 10 10 12 14 15 16 16 17 17 18 18 18 18 18 17 17 16 15 14 14 14 14 14 15 16 16
13 12 10 12 13 13 15 14 11 9 7 6 5 4 5 8 10 11 11 12 15 18 19 18 18 18 18 17 18 18 18 18 17 17 16 16 16 15 15 15 15 14 14 14
16 14 13 14 16 15 13 11 9 7 6 5 4 5 9 9 9 10 11 13 15 17 17 18 18 18 19 18 19 19 18 18 17 17 17 17 17 16 15 14 13 14 13 12
18 17 16 17 17 17 14 11 9 6 5 4 5 8 8 8 8 9 11 12 14 15 16 17 16 15 17 18 19 18 18 18 17 17 16 15 15 15 13 13 14 15 13 11
16 16 17 18 15 13 12 10 8 5 4 5 6 6 6 8 9 10 11 13 15 15 15 15 15 15 16 18 18 18 18 18 18 17 17 16 15 16 16 15 15 15 14 14
18 19 19 17 14 12 10 8 7 5 5 4 3 5 8 9 11 12 14 15 15 16 15 15 17 17 20 21 21 22 20 19 18 18 18 17 16 14 14 15 16 15 16 14
18 19 18 15 14 12 9 7 5 3 1 2 5 7 10 12 14 13 14 15 15 16 17 16 18 19 21 23 22 23 22 24 22 21 22 21 20 19 19 18 17 17 16 14
20 19 15 12 10 9 8 6 3 1 2 4 6 8 11 13 14 14 13 12 13 15 17 19 21 22 22 23 21 24 24 24 24 24 24 24 24 22 24 22 21 21 18 16
20 18 17 15 12 9 7 6 2 1 5 6 7 9 11 12 14 14 13 13 15 18 21 21 22 22 23 24 25 25 24 23 21 23 24 25 24 24 22 20 23 23 21 19

GFSNGP_850_spd_111.txt.gz
Wind_Speed
14 16 12 8 4 3 7 16 7 6 5 7 9 10 16 18 22 25 28 32 38 40 42 45 44 41 39 38 37 34 32 23 23 18 18 18 17 20 22 22 19 16 14 12
5 11 6 7 7 2 8 7 10 12 8 5 8 11 17 20 22 25 27 27 30 35 40 43 44 43 40 40 39 37 36 34 29 23 18 23 23 23 19 17 16 14 10 8
4 14 10 4 5 4 3 11 2 2 6 5 8 14 17 19 20 22 23 27 30 33 37 40 42 41 42 41 39 39 40 39 32 32 26 23 22 21 21 17 12 10 13 12
2 5 2 4 8 9 11 8 8 10 8 8 11 13 16 17 17 20 23 26 28 32 35 38 41 43 42 42 43 43 43 41 37 34 33 27 24 25 22 16 14 14 10 7
3 2 3 4 1 1 3 4 5 2 5 8 9 5 16 17 17 18 22 23 26 28 31 35 39 41 43 44 44 44 45 42 38 36 35 34 33 29 26 23 23 20 17 12
3 3 5 3 2 2 3 1 4 1 3 2 10 3 3 13 16 19 22 25 25 28 29 32 36 36 40 43 43 44 42 40 39 38 38 37 35 36 33 31 30 27 26 26
3 2 2 3 7 2 3 3 6 7 5 7 6 7 4 10 15 18 22 24 25 29 32 32 32 34 38 39 42 39 37 37 37 38 37 37 36 34 34 34 32 32 32 31
1 2 4 9 2 3 8 11 13 13 16 22 17 13 11 13 16 18 20 22 26 29 31 32 32 34 35 37 33 33 33 35 36 35 35 34 34 34 34 33 34 34 33 32
3 2 4 7 11 9 8 17 13 16 15 18 18 14 12 13 15 17 19 22 24 26 28 30 31 32 33 32 30 30 30 32 32 32 32 32 32 32 33 33 33 32 32 32
4 3 6 7 9 11 12 17 17 15 15 14 17 14 14 13 14 15 17 19 21 23 27 28 29 30 30 29 28 28 29 30 29 30 30 30 31 31 31 31 30 29 29 28
4 7 9 6 9 13 17 18 18 15 13 14 14 15 14 14 13 14 15 17 19 22 23 25 25 26 27 28 27 28 28 29 29 28 28 28 28 28 27 26 24 23 23 22
2 12 6 8 13 15 17 17 15 16 15 14 12 14 13 14 13 12 13 15 17 19 21 22 22 24 25 27 27 27 28 28 27 26 25 24 23 22 22 21 20 18 17 17
4 17 9 20 17 16 17 16 15 14 12 13 12 11 11 11 11 11 12 14 17 18 18 19 20 21 22 24 25 25 25 25 25 26 25 25 23 22 20 19 18 19 19 18
18 22 16 18 12 16 16 16 14 13 13 12 12 11 10 10 10 10 11 13 14 14 15 16 17 19 21 22 22 22 22 23 23 23 23 22 22 22 21 21 21 20 19 18
11 5 15 17 21 18 16 15 15 14 14 13 12 11 9 9 9 10 11 11 12 12 13 15 16 17 18 19 19 20 20 21 21 20 20 20 20 20 20 20 20 19 18 16
9 16 21 22 20 19 17 15 15 15 14 13 11 9 8 8 9 8 9 9 9 13 15 16 15 15 17 17 17 18 18 18 18 18 18 19 19 19 20 20 19 20 20 20
19 17 19 18 20 19 16 15 14 14 14 13 11 9 7 6 6 7 7 8 12 14 14 12 13 15 16 17 17 18 18 17 17 17 17 16 16 16 16 16 16 17 18 19
7 14 16 18 21 20 18 16 15 14 13 11 9 8 6 6 5 5 8 11 11 10 10 12 13 14 14 15 16 17 17 17 16 16 16 16 15 15 15 14 15 15 16 16
10 14 14 14 15 16 17 17 15 13 11 9 8 7 7 5 4 6 7 8 8 10 12 13 14 15 16 16 17 17 17 17 17 17 17 16 16 16 15 13 13 14 15 15
12 12 13 15 15 14 16 15 14 13 11 9 8 8 6 6 6 6 6 8 10 12 13 14 15 15 16 17 19 19 19 19 19 19 18 18 18 18 16 15 14 14 14 14
13 13 13 15 16 16 14 14 12 11 9 9 8 7 7 7 6 6 7 9 10 12 14 15 15 15 16 17 19 19 19 19 19 19 19 19 17 17 17 16 15 15 14 13
16 15 15 15 17 18 17 14 13 10 10 9 9 9 7 6 4 5 7 8 11 12 13 15 15 14 15 16 18 19 19 19 19 19 19 19 19 18 16 16 16 16 16 15
17 16 15 17 17 16 16 14 11 10 9 9 8 7 5 3 5 6 8 9 11 12 13 15 15 15 16 17 19 20 19 20 19 21 21 20 19 19 18 17 17 16 16 16
17 16 17 19 19 17 15 13 10 9 10 8 5 2 1 3 7 9 10 10 12 13 14 15 15 17 18 20 21 22 22 20 22 21 23 22 22 22 22 21 19 19 18 17
17 19 21 20 18 16 13 11 11 10 7 5 3 2 3 5 8 9 10 11 11 12 13 14 17 19 20 21 22 22 23 24 24 24 24 23 23 22 22 22 21 22 20 19
19 20 20 17 15 13 12 12 11 8 6 4 3 3 4 7 8 9 10 10 10 11 14 18 20 21 22 23 24 25 25 25 24 22 21 19 20 23 25 24 23 22 20 20
20 21 20 19 17 14 13 11 8 6 3 2 2 3 4 6 8 9 11 12 13 15 18 19 21 22 23 25 25 25 25 25 24 24 24 25 27 28 26 24 23 22 24 25

GFSNGP_850_spd_114.txt.gz
Wind_Speed
14 16 13 12 12 11 7 9 9 3 6 6 5 7 12 14 18 20 23 26 28 31 38 40 38 39 39 39 41 39 38 35 35 22 18 19 20 19 18 19 21 22 22 22
10 14 15 5 4 8 4 3 5 12 8 4 5 7 12 16 19 21 23 25 28 30 33 39 42 44 43 42 42 43 44 38 38 38 28 26 26 27 27 26 25 24 23 21
2 1 9 6 2 3 4 5 2 3 7 7 7 11 14 16 18 20 22 23 25 27 30 34 37 40 44 43 41 42 46 41 40 40 37 37 31 31 31 27 23 20 16 11
2 7 5 5 5 8 8 6 8 12 10 10 11 13 13 15 16 18 20 22 24 25 28 32 33 37 35 41 45 44 45 44 42 40 40 38 35 33 34 31 29 23 19 15
4 9 4 8 6 4 1 4 1 6 8 10 10 7 15 15 14 15 17 18 20 22 25 29 33 35 36 41 42 46 47 45 43 41 40 39 40 36 34 33 34 34 27 26
6 4 4 6 5 3 1 4 4 5 7 9 9 3 4 10 12 14 19 21 24 26 28 31 33 34 38 40 42 43 42 41 40 40 40 40 37 36 36 36 36 34 35 32
10 4 4 4 1 5 4 4 6 7 8 11 4 8 8 7 10 13 17 22 24 28 31 31 33 34 37 37 40 36 35 35 36 37 38 37 35 35 35 36 36 35 34 33
3 3 4 4 5 4 8 11 12 13 13 18 17 14 11 10 12 14 16 21 24 27 29 30 31 32 34 36 32 31 31 32 33 33 33 32 32 33 33 33 32 31 31 31
4 4 4 7 12 14 12 17 15 16 14 15 16 13 11 10 11 13 15 17 21 24 25 28 29 30 32 31 30 29 29 31 30 31 31 31 31 31 31 31 30 30 29 27
5 5 8 10 10 13 14 17 15 15 14 13 15 12 11 10 10 11 14 16 17 19 23 25 27 28 28 26 27 28 29 30 30 31 29 31 30 30 31 31 30 28 26 26
4 7 10 7 10 15 17 16 16 14 13 14 14 14 12 11 10 11 13 15 16 18 20 22 22 23 24 25 25 26 27 28 28 27 28 25 29 31 29 29 27 25 23 21
2 15 2 17 15 17 19 17 15 16 15 13 13 13 11 10 9 10 11 11 13 15 16 17 18 20 21 22 23 24 22 23 26 24 24 23 21 20 25 24 24 23 22 21
6 11 10 20 19 16 18 17 15 15 14 15 12 11 10 10 9 10 10 11 13 14 16 16 16 17 19 21 22 23 24 21 20 21 21 21 21 20 19 19 21 21 21 21
19 24 18 20 13 18 18 16 16 15 14 13 13 11 11 10 10 9 9 10 12 12 13 13 15 17 20 20 21 21 20 21 18 18 18 18 18 17 17 18 19 19 20 20
16 5 17 16 20 18 17 17 16 15 15 14 13 12 11 10 10 10 10 10 11 10 10 12 13 15 17 17 18 19 20 20 16 15 16 16 16 16 16 17 17 17 18 18
10 16 20 22 21 19 17 16 15 16 15 15 14 12 11 10 10 9 9 9 7 8 10 11 13 15 16 16 16 16 15 17 17 15 15 15 15 15 15 14 14 15 16 18
21 21 22 22 21 20 17 16 15 16 16 15 14 12 11 9 9 8 7 6 7 9 11 12 13 13 14 15 15 14 13 14 15 12 12 13 12 13 13 13 14 14 15 18
8 16 18 20 22 21 19 17 17 18 17 15 13 11 10 9 7 6 6 6 7 9 9 9 10 11 12 13 14 13 13 12 11 12 12 12 12 11 11 11 12 12 12 13
13 18 18 18 18 18 19 19 20 19 16 13 12 10 9 7 6 5 5 6 7 7 8 8 9 10 13 15 14 12 11 11 11 11 12 13 12 12 12 12 12 12 12 13
16 16 17 18 18 20 22 21 19 17 14 12 11 10 8 7 6 5 3 4 3 4 6 8 9 11 12 14 14 10 11 11 12 12 12 12 12 12 12 13 13 12 12 12
17 18 18 19 20 19 19 18 17 16 14 13 11 10 8 7 5 3 2 1 5 6 7 9 10 8 9 12 10 10 11 12 13 13 13 13 14 14 13 13 13 13 13 13
16 17 18 19 21 21 20 18 16 14 13 12 11 10 8 6 4 1 0 2 5 6 7 6 7 10 12 14 11 12 13 13 14 14 15 15 16 16 15 14 14 13 13 13
17 16 17 18 20 21 20 18 15 13 11 11 10 9 8 5 3 2 4 8 5 6 7 6 11 13 15 15 12 12 13 14 14 15 16 16 17 17 17 17 17 17 16 15
19 19 18 20 21 20 19 17 14 13 12 12 10 8 6 3 3 4 5 8 8 9 8 10 13 14 17 12 12 13 14 15 16 16 17 18 17 18 17 17 16 17 17 18
19 19 19 21 21 19 16 15 14 13 12 11 9 7 5 4 3 6 6 7 7 7 6 12 14 16 15 13 13 14 15 16 16 17 16 16 16 15 16 17 18 18 18 18
18 19 21 21 19 18 17 15 13 12 11 9 7 7 7 6 5 5 6 6 7 8 9 14 16 17 17 17 18 17 16 16 16 16 17 17 17 17 17 18 18 17 17 17
19 20 22 20 18 17 15 14 12 11 9 7 6 7 6 5 5 5 6 7 9 11 13 14 16 19 20 22 21 21 20 16 17 18 16 15 15 15 15 16 15 15 15 15

GFSNGP_850_spd_117.txt.gz
Wind_Speed
15 16 15 13 12 12 11 15 10 7 2 4 6 7 10 12 15 19 22 24 26 27 30 32 37 40 39 38 40 41 42 43 46 35 26 20 20 20 20 20 21 22 22 23
11 16 15 15 15 13 9 8 5 2 4 5 7 7 10 13 16 19 21 23 25 27 28 32 35 37 36 39 42 43 45 45 46 46 42 37 30 26 26 27 25 22 21 18
7 3 4 7 9 8 3 3 5 9 8 8 7 9 11 12 15 17 19 21 24 26 28 30 33 33 34 39 41 44 46 47 46 46 45 46 40 37 37 33 30 29 26 22
5 4 8 4 4 4 5 4 7 11 10 10 11 11 11 12 13 15 17 19 20 22 24 26 28 29 29 32 41 45 46 47 47 46 45 45 45 45 44 43 40 39 36 34
4 9 6 8 7 7 7 6 6 11 12 14 14 15 15 12 12 13 14 15 17 18 21 25 28 31 30 34 37 43 45 45 44 44 43 43 44 45 44 41 44 43 41 41
5 7 3 9 11 6 6 6 11 11 13 14 12 3 5 6 9 11 14 16 19 22 24 26 28 29 33 35 37 41 40 39 38 39 39 39 38 41 40 41 42 42 40 36
12 8 4 6 7 6 5 5 12 11 11 12 5 6 13 8 9 10 14 18 19 22 25 27 28 29 32 33 35 33 33 34 35 36 36 36 35 36 35 36 36 36 37 36
10 6 5 3 7 4 6 12 14 14 14 20 18 15 12 9 9 9 11 15 19 22 24 24 25 27 30 32 30 30 32 32 35 35 35 36 35 34 34 33 33 32 32 31
5 4 5 4 9 12 12 16 16 18 17 19 18 15 12 10 8 8 11 12 15 19 21 23 25 26 26 27 28 28 29 32 32 32 35 35 35 35 36 35 34 32 31 29
6 6 6 7 8 12 15 18 18 18 18 17 18 14 12 9 8 8 9 11 11 13 18 21 23 24 26 24 25 27 28 29 30 32 30 32 34 34 34 34 33 32 30 30
4 7 9 8 12 15 18 18 18 16 16 17 16 14 12 10 8 8 9 10 11 13 15 17 19 21 22 24 25 24 26 27 26 24 27 25 31 33 33 33 31 29 27 24
1 18 5 19 16 18 19 18 17 18 17 14 14 14 12 10 8 7 8 8 10 12 12 14 15 17 20 21 21 22 21 22 25 22 23 23 22 20 27 31 30 28 26 25
4 17 11 20 19 17 18 18 17 17 16 17 14 13 11 11 9 9 8 8 9 10 11 12 14 16 17 19 19 20 20 19 19 20 20 21 20 20 19 19 22 26 25 24
17 22 20 21 19 19 19 18 17 16 15 14 14 12 11 10 9 8 7 8 8 9 10 11 12 15 17 18 20 20 19 18 17 17 17 17 17 17 17 18 20 20 22 23
19 1 18 19 23 20 18 19 19 17 16 15 13 12 10 10 9 8 8 8 8 8 9 10 12 15 16 16 15 16 17 17 14 14 15 15 15 15 16 16 17 17 19 21
9 17 21 24 23 21 20 19 18 18 16 15 13 11 10 9 8 7 7 7 6 7 8 10 12 14 14 15 14 13 13 17 14 13 14 15 14 15 16 16 16 16 18 20
19 20 22 22 23 23 21 18 17 18 17 15 14 13 11 10 8 7 6 6 5 6 8 10 11 13 14 14 14 12 12 13 15 14 14 14 14 14 15 15 15 16 16 21
10 15 18 20 21 21 19 18 18 18 17 16 16 14 11 11 8 6 5 4 4 6 9 10 10 11 13 14 13 12 12 13 13 14 14 14 15 14 14 15 15 15 16 16
11 16 17 18 19 18 18 18 18 19 19 17 15 13 11 10 8 5 4 3 5 9 9 9 9 10 12 14 13 11 13 14 14 14 14 15 14 15 15 16 16 16 17 16
15 15 17 17 17 19 21 22 22 19 18 17 15 13 11 8 6 4 2 2 3 4 6 7 8 10 13 12 15 10 13 14 14 15 15 16 16 17 16 17 17 17 16 16
18 19 21 23 22 22 20 20 20 20 18 15 13 12 10 8 6 4 2 3 8 6 7 8 10 6 8 12 12 12 13 15 15 16 17 17 18 18 18 18 18 18 18 17
19 21 21 21 21 20 20 21 19 18 17 16 14 12 9 8 6 3 1 4 4 7 7 5 6 11 14 16 10 12 14 15 16 17 17 18 19 19 20 20 20 20 19 19
16 17 18 20 20 21 22 20 19 16 15 14 12 11 9 6 4 1 4 9 4 8 6 7 14 16 15 14 11 13 14 16 17 18 17 18 19 20 20 20 20 20 20 19
17 18 18 20 20 21 22 21 18 16 14 13 12 11 8 5 2 2 3 9 9 9 7 10 13 15 17 11 12 14 15 16 17 17 18 19 17 19 19 18 19 19 19 20
18 19 19 20 21 21 19 19 17 15 14 12 11 10 8 7 8 6 5 5 7 5 6 15 17 15 10 12 13 15 15 16 16 17 17 17 18 18 18 19 19 20 20 20
18 18 18 19 18 17 19 18 13 13 13 11 8 7 7 6 5 3 4 4 4 4 5 10 13 15 11 11 14 14 15 15 15 16 16 16 16 16 17 17 18 17 18 18
16 17 18 16 15 15 16 15 13 13 12 10 9 8 7 5 5 4 4 5 4 6 7 9 10 14 16 16 12 13 13 13 15 16 15 15 16 15 17 17 18 17 17 18